www.pogodaiklimat.ru

Погода и климат >> Архив погоды >> Россия >> Тульская область >> Суворов


ПОГОДА в Суворове

  • Прогноз погоды в Суворове
  • Монитор погоды в Суворове

АРХИВ ПОГОДЫ в Суворове

Время (UTC), дата Ветер
(напр.,м/с)
 
Видим.   Явления Облачность Т
(С)
Тd
(С)
f
(%)
Тe
(С)
Тes
(С)
Комфортность P
(гПа)
Po
(гПа)
Тmin
(С)
Tmax
(С)
R
(мм)
R24
(мм)
S
(см)
18 11.09 Ю 2 20 км 4/0
[Ac trans]
+15.3 +7.7 60 +15 +15 1029.5 1003.3 +25.6
21 11.09 Ю 2 20 км ясно +10.4 +7.4 82 +9 +9 1030.0 1003.3
00 12.09 Ю 1 17 км ясно +10.3 +6.6 78 +10 +10 1029.8 1003.1
03 12.09 ЮВ 1 7000 м туман местами 4/0
[Ci fib]
+7.9 +6.8 93 +7 +7 1030.0 1003.2 +7.4
06 12.09 Ю 2 20 км 6/0
[Ci fib]
+16.8 +7.4 54 +17 +20 1029.2 1003.2 +7.2
09 12.09 Ю 2 20 км 8/0
[Ci fib]
+23.8 +7.3 35 +24 +31 комфорт 1028.2 1002.8
12 12.09 ЮЗ 3 20 км 8/3 1000 м
[Cu hum Ci fib]
+25.3 +3.5 24 +24 +27 комфорт 1026.7 1001.4
15 12.09 З 1 20 км 8/0
[Ci fib]
+23.5 +5.1 30 +23 +24 комфорт 1025.7 1000.3
18 12.09 Ю 2 20 км ясно +14.0 +9.3 73 +14 +14 1026.1 999.9 +25.6
21 12.09 Ю 2 15 км ясно +13.0 +7.2 68 +12 +12 1025.4 999.1
00 13.09 Ю 1 15 км ясно +10.9 +6.6 75 +11 +11 1024.7 998.2
03 13.09 Ю 2 15 км 3/0
[Ci fib]
+9.9 +5.9 76 +8 +8 1023.8 997.3 +9.9
06 13.09 Ю 2 20 км ясно +15.8 +6.3 53 +16 +19 1023.0 996.9 +9.8
09 13.09 ЮЗ 3 20 км 9/0
[Ci]
+21.9 +8.3 42 +23 +29 комфорт 1021.3 995.9
12 13.09 ЮЗ 4 20 км 9/4 1000 м
[Cu med, cong Ci sp]
+23.9 +8.8 38 +25 +26 комфорт 1019.4 994.2
15 13.09 ЮЗ 2 20 км 3/0
[Ci sp]
+22.3 +9.5 44 +24 +24 комфорт 1017.8 992.5
18 13.09 ЮЗ 2 20 км 4/0
[Ac trans]
+17.3 +10.7 65 +18 +18 1017.1 991.4 +24.6
21 13.09 ЮЗ 2 20 км 8/0
[Ac trans]
+15.5 +10.6 73 +15 +15 1015.8 990.0
00 14.09 ЮЗ 3 20 км 8/8 600 м
[Sc]
+14.8 +9.7 71 +14 +14 1014.0 988.1
03 14.09 З 3 15 км {ливн. осадки} 10/10 600 м
[Sc]
+14.1 +10.7 80 +13 +13 1013.7 987.8 +14.1 0.3
06 14.09 СЗ 5-10
{10}
20 км {ливн. осадки} 8/4 600 м
[Sc Ac trans]
+13.5 +6.8 64 +12 +12 1015.8 989.7 +12.7 0.3
09 14.09 СЗ 4
{11}
20 км 9/9 600 м
[Cb cap]
+14.2 +6.1 58 +13 +13 1016.9 990.9
12 14.09 СЗ 6-11
{11}
20 км {ливн. осадки} 6/6 600 м
[Sc diur, vesp]
+16.1 +4.8 47 +15 +16 1017.5 991.6
15 14.09 З 4
{11}
20 км 6/6 600 м
[Cb cap]
+14.5 +1.0 40 +13 +14 1018.1 992.1 0.0
18 14.09 З 1
{11}
20 км 6/0
[Ac trans]
+9.3 +3.9 69 +9 +9 1019.3 992.8 +16.1
21 14.09 З 1 17 км 8/0
[Ac trans]
+7.6 +4.2 79 +7 +7 1019.4 992.7
00 15.09 З 2 17 км 6/0
[]
+6.4 +4.4 87 +4 +4 1019.2 992.4
03 15.09 З 2 15 км 8/8 600 м
[Sc]
+5.5 +4.3 92 +3 +3 1019.3 992.5 +5.2
06 15.09 З 4 15 км 8/8 600 м
[Sc]
+8.0 +4.9 81 +5 +5 1019.4 992.8 +5.2
09 15.09 З 6-10
{10}
20 км 8/8 1000 м
[Cu med, cong]
+13.4 +3.2 50 +11 +12 1018.2 992.1
12 15.09 З 5
{10}
20 км 9/4 1000 м
[Cu hum Ci fib]
+14.9 +0.8 38 +14 +15 1015.9 989.9
15 15.09 ЮЗ 4
{10}
20 км 9/9 600 м
[Sc]
+13.7 +2.2 46 +12 +12 1013.6 987.6
18 15.09 ЮЗ 3 7000 м слаб. ливневой дождь 10/10 600 м
[Cb cap]
+10.1 +6.6 79 +8 +8 1011.9 985.7 +15.6 0.5
21 15.09 Ю 3 9000 м слаб. ливневой дождь 10/10 600 м
[Cb cap]
+9.6 +6.5 81 +7 +7 1009.0 982.8
00 16.09 ЮЗ 3 11 км слаб. ливневой дождь 10/10 600 м
[Cb cap]
+9.4 +7.0 85 +7 +7 1006.4 980.3
03 16.09 ЮЗ 4 7000 м слаб. ливневой дождь 10/10 600 м
[Cb cap]
+9.2 +7.7 90 +6 +6 1003.9 977.8 +9.2 5
06 16.09 ЮЗ 4
{11}
8000 м слаб. ливневой дождь 10/10 600 м
[Cb cap]
+9.8 +8.4 91 +7 +7 1002.5 976.5 +9.2 7
09 16.09 З 6-11
{12}
20 км {ливн. осадки} 8/8 600 м
[Sc]
+13.0 +7.7 70 +11 +11 1001.4 975.7
12 16.09 З 5-10
{12}
20 км {ливн. осадки} 8/8 1000 м
[Cu med, cong]
+15.5 +6.4 55 +14 +15 1000.9 975.4
15 16.09 З 7-13
{14}
20 км {ливн. осадки} 8/8 1000 м
[Cu hum]
+14.2 +5.8 57 +12 +12 1001.8 976.2 2
18 16.09 З 3
{13}
20 км {ливн. осадки} 3/3 600 м
[Sc]
+11.6 +7.2 74 +10 +10 1002.5 976.7 +15.9 0.3
21 16.09 З 4 20 км 3/0
[Ac trans]
+10.7 +5.6 71 +8 +8 1001.7 975.7
00 17.09 ЮЗ 2 15 км 8/0
[Ci fib]
+9.4 +6.1 80 +8 +8 1001.2 975.2
03 17.09 З 3 15 км 6/0
[Ci fib]
+8.2 +5.4 82 +6 +6 1001.1 975.0 +8.2
06 17.09 З 4 20 км 10/10 600 м
[Sc]
+9.3 +5.9 79 +6 +6 1001.2 975.1 +7.9
09 17.09 З 4
{12}
20 км 8/8 1000 м
[Cu med, cong]
+11.7 +4.1 60 +10 +11 1000.9 975.1
12 17.09 З 3
{15}
12 км в посл. час ливневой дождь 8/8 600 м
[Cb cap]
+10.2 +6.3 77 +8 +9 1001.5 975.5
15 17.09 ЮЗ 3
{11}
20 км 8/8 600 м
[Cb calv]
+9.7 +4.5 70 +8 +8 1001.7 975.7 2
18 17.09 ЮЗ 4 20 км 6/0
[Ac trans]
+8.6 +4.3 74 +6 +6 1002.0 975.9 +13.5 2
21 17.09 ЮЗ 3 17 км 3/0
[Ac trans]
+6.9 +3.9 81 +4 +4 1001.8 975.5
00 18.09 ЮЗ 3 15 км ясно +5.9 +3.3 83 +3 +3 1001.3 974.9
03 18.09 ЮЗ 2 14 км 8/0
[Ac trans]
+5.6 +3.5 86 +3 +3 1000.5 974.1 +3.8
06 18.09 Ю 3 5000 м слаб. ливневой дождь 10/10 300 м
[Cb cap]
+5.8 +4.8 93 +2 +2 999.6 973.3 +3.8 1
09 18.09 Ю 2 12 км {ливн. осадки} 10/10 600 м
[Cb cap]
+7.2 +6.0 92 +5 +5 998.7 972.5
12 18.09 В 3 14 км в посл. час ливневой дождь 9/9 600 м
[Cb cap]
+8.8 +7.3 90 +6 +7 997.4 971.4

 

Местоположение метеостанции Суворов (Тульская область, Россия): широта 54.13 долгота 36.53 высота над уровнем моря 219 м.

В архиве по умолчанию представлена погода в Суворове за последнюю неделю. Архивные данные за месяц целиком и за предыдущие месяцы, начиная с января 2011 года, Вы можете получить, выбрав интересующий диапазон дат из раскрывающегося списка и нажав кнопку "Ввод!".


*Определитесь, кто Вы:
робот инопланетянин человек

Внимание! Время в таблицах - всемирное. Для получения местного времени необходимо прибавить поправку, которая равна 3 ч.

Смотрите также архив погоды в соседних городах и на ближайших метеорологических станциях:

Погода в Калуге (Калужская область, Россия) (51 км)
Погода в Алексине (Тульская область, Россия) (54 км)
Погода в Плавске (Тульская область, Россия) (70 км)
Погода в Туле (Тульская область, Россия) (72 км)
Погода в Сухиничах (Калужская область, Россия) (77 км)
Погода в Болхове (Орловская область, Россия) (85 км)
Погода в Мценске (Орловская область, Россия) (95 км)
Погода в Малоярославце (Калужская область, Россия) (99 км)
Погода в Узловой (Тульская область, Россия) (105 км)
Погода в Мосальске (Калужская область, Россия) (106 км)

Пояснения к столбцам:

Ветер - указаны скорость ветра в м/с - средняя за 10 мин, порывы в срок и между сроками (в фигурных скобках) и направление, откуда дует ветер: С - северный, СВ - северо-восточный, В - восточный, ЮВ - юго-восточный, Ю - южный, ЮЗ - юго-западный, З - западный, СЗ - северо-западный.
Видимость - горизонтальная дальность видимости в метрах или километрах. При видимости от 1 до 10 км при отсутствии осадков обычно наблюдается дымка, при ухудшении видимости до 1 км и менее - туман. В сухую погоду видимость может ухудшаться дымом, пылью или мглою.
Явления - указаны атмосферные явления, наблюдавшиеся в срок или в последний час перед сроком; фигурными скобками обозначены явления, наблюдавшиеся между сроками (за 1-3 часа до срока); квадратными скобками обозначены град или гололедные отложения с указанием их диаметра в мм.
Облачность - указаны через наклонную черту общая и нижняя облачность в баллах и высота нижней границы облаков в метрах; квадратными скобками обозначены формы облаков: Ci - перистые, Cs - перисто-слоистые, Cc - перисто-кучевые, Ac - высококучевые, As - высокослоистые, Sc - слоисто-кучевые, Ns - слоисто-дождевые, Cu - кучевые, Cb - кучево-дождевые. Подробнее классификацию облаков см. в Атласе облаков (PDF).
T - Температура воздуха - температура, измеренная на высоте 2 м над землей.
Td - Температура точки росы - температура, при понижении до которой содержащийся в воздухе водяной пар достигнет насыщения.
f - Относительная влажность воздуха - влажноcть воздуха, измеренная на высоте 2 м над землей.
Te - Эффективная температура - температура, которую ощущает одетый по сезону человек в тени. Характеристика душности погоды. При расчете учитывается влияние влажности воздуха и скорости ветра на теплоощущения человека.
Tes - Эффективная температура на солнце - температура, которую ощущает человек, с поправкой на солнечный нагрев. Характеристика знойности погоды. Зависит от высоты солнца над горизонтом, облачности и скорости ветра. Ночью, в пасмурную погоду, а также при ветре 12 м/с и более поправка равна нулю.
P - Атмосферное давление - приведенное к уровню моря атмосферное давление.
Po - Атмосферное давление - измеренное на уровне метеостанции атмосферное давление.
Tmin - Минимальная температура - минимум температуры воздуха на высоте 2 м над землей.
Tmax - Максимальная температура - максимум температуры воздуха на высоте 2 м над землей.
R - Количество осадков - Количество выпавших осадков за период времени, мм. При наведении курсора мыши на число - период времени, за который выпало указанное количество осадков.
R24 - Количество осадков - Количество выпавших осадков за 24 часа, мм.
S - Снежный покров - Высота снежного покрова, см. При наведении курсора мыши на число - состояние снежного покрова и степень покрытия местности в баллах.